Location: Unspecified
(50.0000°N, 15.0000°E)
Time: 01:17:12
(UTC+01:00)

X-37B - Pass Details

Date: 10 December 2021
Orbit: 334 x 337 km, 45.0° (Epoch: 11 January)

Event Time Altitude Azimuth Distance (km) Brightness Sun altitude
Rises 17:40:29 0° 235° (SW) 2,099 5.8 -15.5°
Reaches altitude 10° 17:42:44 10° 218° (SW) 1,264 4.0 -15.8°
Maximum altitude 17:45:00 22° 165° (SSE) 804 2.2 -16.2°
Enters shadow 17:45:33 20° 147° (SSE) 839 2.1 -16.2°
